Find Starlink 1284

NORAD ID: 45390 Int'l Des: 2020-019 Owner: SPXS Country: US Constellation: starlink operational
LEOCIRCULAR

当前视图

正在加载3D地球...

About Starlink 1284

Starlink 1284 (NORAD 45390) is a starlink constellation satellite (v1.0) launched Mar 18, 2020 by SPXS of US. It operates in LEO, CIRCULAR orbit with a mass of 260.00 kg.

即将过境

Passes for default location (London). Set your location on the main map for personalized predictions.

高度历史

Loading altitude history...

两行轨道根数

1 45390U 20019AG 26263.25153974 .00113364 00000-0 44834-3 0 9992
2 45390 53.0354 249.2358 0006110 37.2255 322.9190 15.85947802360787
Epoch: Sep 20, 2026 • Age: 18 hours

当前状态

高度 314.6 km
远地点 / 近地点 N/A
速度 7.73 km/s
星下点 46.77°N, 68.68°W
发射日期 Mar 18, 2020
运行时间 6.5 years
类型 internet

技术详情

分类 Payload
质量 260.00 kg
干质量 248.00 kg
长度 0.20 m
跨度 9.00 m
形状 ? Box + pan
制造商 SPXS
平台类型 Starlink
阶段状态 In Orbit
所有者/国家 SPXS/US

Most Searched